• Processing (Info)

  • MPEC 2010-R70 : 2010 RL43

    The following Minor Planet Electronic Circular may be linked-to from your own Web pages, but must not otherwise be redistributed electronically.

    A form allowing access to any MPEC is at the bottom of this page.


    Read MPEC 2010-R69 Read MPEC 2010-R71


    M.P.E.C. 2010-R70                                Issued 2010 Sept. 7, 22:47 UT
    
         The Minor Planet Electronic Circulars contain information on unusual
             minor planets and routine data on comets.  They are published
       on behalf of Commission 20 of the International Astronomical Union by the
              Minor Planet Center, Smithsonian Astrophysical Observatory,
                              Cambridge, MA 02138, U.S.A.
    
                 Prepared using the Tamkin Foundation Computer Network
    
                                  MPC@CFA.HARVARD.EDU
           URL https://www.minorplanetcenter.org/iau/mpc.html  ISSN 1523-6714
    
                                       2010 RL43
    
    Observations:
         K10R43L* C2010 09 06.24705 22 00 59.72 +08 21 58.2          17.7   ER070704
         K10R43L  C2010 09 06.25881 22 01 24.40 +08 21 11.3          17.9   ER070704
         K10R43L  C2010 09 06.27054 22 01 48.87 +08 20 24.2          17.9   ER070704
         K10R43L  C2010 09 06.28230 22 02 13.27 +08 19 37.0          18.0   ER070704
         K10R43L  C2010 09 06.29413 22 02 37.62 +08 18 49.4          18.2   ER070704
         K10R43L KC2010 09 07.06792 22 26 00.39 +07 31 53.0          17.3 R ER070113
         K10R43L KC2010 09 07.06888 22 26 01.82 +07 31 50.1          17.7 R ER070113
         K10R43L KC2010 09 07.06996 22 26 03.41 +07 31 46.2          17.6 R ER070113
         K10R43L KC2010 09 07.10909 22 27 09.52 +07 34 56.2          17.1 R ER070I77
         K10R43L KC2010 09 07.11179 22 27 13.21 +07 34 47.0          17.8 R ER070I77
         K10R43L KC2010 09 07.11492 22 27 17.59 +07 34 36.6          17.5 R ER070I77
         K10R43L  C2010 09 07.19439322 29 18.30 +07 26 12.3          17.7 V ER070H21
         K10R43L  C2010 09 07.19781722 29 22.94 +07 26 02.0          17.7 V ER070H21
         K10R43L  C2010 09 07.20409022 29 31.43 +07 25 43.2          17.7 V ER070H21
         K10R43L  C2010 09 07.20715322 29 35.57 +07 25 34.0          17.6 V ER070H21
         K10R43L  C2010 09 07.21016022 29 39.63 +07 25 25.1          17.5 V ER070H21
         K10R43L KC2010 09 07.23840 22 30 25.38 +07 24 01.9          16.1 R ER070G56
         K10R43L KC2010 09 07.24301 22 30 31.63 +07 23 50.9          16.5 R ER070G56
         K10R43L KC2010 09 07.24628 22 30 35.93 +07 23 41.0          16.5 R ER070G56
         K10R43L KC2010 09 07.26538 22 30 52.57 +07 22 55.7          17.1 R ER070850
         K10R43L KC2010 09 07.27633 22 31 06.98 +07 22 21.8          17.6 R ER070850
         K10R43L |C2010 09 07.28001 22 31 16.47 +07 22 23.2          16.9   ER070H06
         K10R43L |C2010 09 07.28206 22 31 19.11 +07 22 17.4          16.8   ER070H06
         K10R43L |C2010 09 07.28412 22 31 21.78 +07 22 11.4          16.8   ER070H06
         K10R43L KC2010 09 07.29078 22 31 25.90 +07 21 39.5          17.7 R ER070850
         K10R43L KC2010 09 07.85514 22 43 18.35 +06 55 23.3                 ER070J95
         K10R43L KC2010 09 07.85754 22 43 20.86 +06 55 17.4                 ER070J95
         K10R43L KC2010 09 07.85997 22 43 23.46 +06 55 11.2          18.1 R ER070J95
         K10R43L KC2010 09 07.87937 22 43 45.36 +06 55 05.5          18.3 R ER070J02
         K10R43L KC2010 09 07.88096 22 43 47.04 +06 55 01.0          18.5 R ER070J02
         K10R43L KC2010 09 07.88254 22 43 48.77 +06 54 57.1          18.3 R ER070J02
         K10R43L KC2010 09 07.88413 22 43 50.27 +06 54 54.1          18.4 R ER070J02
         K10R43L KC2010 09 07.88571 22 43 51.92 +06 54 49.8          18.2 R ER070J02
    
    Observer details:
    113 Volkssternwarte Drebach, Schoenbrunn.  Observer A. Knofel.  0.5-m f/5
        reflector + CCD.
    704 Lincoln Laboratory ETS, New Mexico.  Observers M. Blythe, G. Spitz,
        R. Brungard, J. Paige, P. Festler.  1.0-m f/2.15 reflector + CCD.
    850 Cordell-Lorenz Observatory, Sewanee.  Observer D. T. Durig.  0.30-m f/3.1
        Schmidt-Cassegrain + CCD.
    G56 Walnut Creek.  Observer G. McKeegan.  0.28-m Schmidt-Cassegrain + CCD
        + f/6.2 focal reducer.
    H06 RAS Observatory, Mayhill.  Observer H. Sato.  0.25-m f/3.4 reflector + CCD.
    H21 Astronomical Research Observatory, Westfield.  Observer R. Holmes.
        Measurers H. Devore, B. Ruck, T. Vorobjov.  0.61-m f/4.5 astrograph + CCD.
    I77 CEAMIG-REA Observatory, Belo Horizonte.  Observers C. Jacques, E. Pimentel.
        Measurer C. Jacques.  0.30-m f/3.0 reflector + CCD.
    J02 Busot.  Observer R. Garcia.  0.35-m f/10 Schmidt-Cassegrain + CCD + f/6.3
        focal reducer.
    J95 Great Shefford.  Observer P. Birtwhistle.  0.40-m f/6.0 Schmidt-Cassegrain
        + CCD.
    
    Orbital elements:
    2010 RL43                                                Earth MOID = 0.0082 AU
    Epoch 2010 July 23.0 TT = JDT 2455400.5                 MPC
    M 358.00200              (2000.0)            P               Q
    n   0.27521256     Peri.    0.73380     +0.36968959     +0.92909869
    a   2.3407618      Node   290.96272     -0.85253929     +0.33479522
    e   0.6224547      Incl.    0.62940     -0.36946768     +0.15712346
    P   3.58           H   24.2           G   0.15           U   7
    Residuals in seconds of arc
    100906 704  0.0   0.1-    100907 H21  0.1+  0.1+    100907 H06  0.2+  0.3+
    100906 704  0.2+  0.2+    100907 H21  0.1+  0.0     100907 H06  0.0   0.4+
    100906 704  0.3+  0.2+    100907 H21  0.0   0.0     100907 850  0.4+  0.1+
    100906 704  0.4+  0.3+    100907 H21  0.1+  0.0     100907 J95  0.2+  0.4+
    100906 704  0.6-  0.3+    100907 H21  0.1+  0.1+    100907 J95  0.5-  0.2+
    100907 113  0.2-  0.4-    100907 G56  0.1+  1.6-    100907 J95  0.2-  0.2-
    100907 113  0.0   0.2-    100907 G56  1.4+  0.8+    100907 J02  0.4+  0.3+
    100907 113  0.0   0.6-    100907 G56  0.5+  0.4+    100907 J02  0.9+  0.5-
    100907 I77  0.8-  0.4+    100907 850  0.4+  0.2-    100907 J02 (2.3+  0.6-)
    100907 I77  1.8-  0.2-    100907 850  0.6+  1.1-    100907 J02  0.2+  0.1+
    100907 I77  1.3-  0.7-    100907 H06  0.5+  0.1+    100907 J02  0.5+  0.4-
    
    Ephemeris:
    2010 RL43                a,e,i = 2.34, 0.62, 1                   q = 0.8837
    Date    TT    R. A. (2000) Decl.     Delta      r     Elong.  Phase     V
    2010 09 01    14 49.02   +04 02.9    0.0239   0.998    62.0   116.8    20.7
    2010 09 03    17 29.19   +09 36.8    0.0154   1.011    99.0    80.2    18.0
    2010 09 05    20 56.65   +09 59.8    0.0198   1.025   146.1    33.2    17.1
    2010 09 07    22 24.38   +07 38.7    0.0322   1.039   163.3    16.2    17.7
    2010 09 09    23 00.48   +06 17.7    0.0468   1.053   168.0    11.4    18.4
    2010 09 11    23 19.15   +05 30.2    0.0620   1.068   169.7     9.7    18.9
    2010 09 13    23 30.36   +04 59.1    0.0776   1.083   170.9     8.5    19.4
    2010 09 15    23 37.78   +04 36.9    0.0935   1.098   172.0     7.4    19.8
    2010 09 17    23 43.02   +04 19.9    0.110    1.114   173.1     6.2    20.1
    2010 09 19    23 46.90   +04 06.3    0.126    1.130   174.2     5.2    20.4
    2010 09 21    23 49.88   +03 55.0    0.143    1.146   175.2     4.2    20.6
    2010 09 23    23 52.23   +03 45.4    0.160    1.163   175.8     3.6    20.9
    2010 09 25    23 54.15   +03 37.1    0.177    1.180   175.8     3.6    21.1
    2010 09 27    23 55.75   +03 29.8    0.195    1.196   175.1     4.1    21.4
    2010 09 29    23 57.12   +03 23.4    0.213    1.214   174.0     4.9    21.7
    2010 10 01    23 58.32   +03 17.9    0.231    1.231   172.6     6.0    21.9
    
    Sonia Keys                   (C) Copyright 2010 MPC           M.P.E.C. 2010-R70
    

    Read MPEC 2010-R69 Read MPEC 2010-R71


    MPEC number:

    Enter an MPEC number in one of the following forms:

    • 1997-B01 (the full form)
    • J97B01 (the packed version of the full form)
    • B01 (the abbreviated form)